Terminal Aerodrome Forecast
Issued by NWS

Home | Current Version | Previous Version | Text Only | Print | Product List | Glossary On
Versions: 1 2 3 4 5 6 7 8 9 10 11 12 13 14 15 16 17 18 19 20 21 22 23 24 25 26 27 28 29 30 31 32 33 34 35 36 37 38 39 40 41 42 43 44 45 46 47 48 49 50
000
FTUS43 KMKX 201139
TAFENW
TAF
KENW 201139Z 2012/2112 26004KT P6SM FEW050
     FM202000 13008KT P6SM SCT040
     FM210100 11004KT P6SM SCT040
     FM210500 VRB03KT 5SM BR SCT050
     FM210800 VRB03KT 3SM TSRA BR BKN050CB=

USA.gov is the U.S. government's official web portal to all federal, state and local government web resources and services.